Date String (YYYY-MM-DD hh:mm:ss) UTC,Instrument flags,absolute air pressure of the measurement (hPa),sample flow rate (lpm),inlet stack bypass flow (lpm),air temperature of the measurement (°C),ambient temperature measured by the external sensor (°C),aerosol sample conditioner tube jacket temperature (°C),OPC LED temperature (°C),internal box temperature (°C),relative humidity of the measurement (%),span deviation,mass concentration of particles derived from Lorenz-Mie calculation of OPC scattering (μg/m³),mass concentration of particles derived from Lorenz-Mie calculation of OPC scattering (μg/m³),mass concentration of particles derived from Lorenz-Mie calculation of OPC scattering (μg/m³)
DateTimeUTC,F1_M11,P_M11,Q1_M11,Q2_M11,T1_M11,T2_M11,T3_M11,T4_M11,T5_M11,U1_M11,ZSPAN_M11,X0_M11,X2_M11,X1_M11
2023-10-23 05:00:00,SystemResetWarning,0824.4,5.00,000.00,028.7,027.4,000.0,037.1,030.3,13.4,0000.0,0012.76,0005.01,0003.81
2023-10-23 05:01:00,SystemResetWarning,0824.4,5.00,000.00,028.7,027.4,000.0,037.1,030.4,13.3,0000.0,0012.81,0005.02,0003.81
2023-10-23 05:02:00,SystemResetWarning,0824.4,5.00,000.00,028.8,027.4,000.0,037.1,030.4,13.3,0000.0,0012.14,0005.00,0003.81
2023-10-23 05:03:00,SystemResetWarning,0824.4,5.00,000.00,028.8,027.4,000.0,037.2,030.4,13.3,0000.0,0011.84,0005.02,0003.81
2023-10-23 05:04:00,SystemResetWarning,0824.4,5.00,000.00,028.8,027.4,000.0,037.2,030.4,13.3,0000.0,0011.97,0005.01,0003.80
2023-10-23 05:05:00,SystemResetWarning,0824.4,4.99,000.00,028.8,027.4,000.0,037.2,030.4,13.3,0000.0,0013.10,0005.03,0003.80
2023-10-23 05:06:00,SystemResetWarning,0824.4,5.00,000.00,028.8,027.4,000.0,037.2,030.4,13.3,0000.0,0013.37,0005.05,0003.80
2023-10-23 05:07:00,SystemResetWarning,0824.4,5.01,000.00,028.8,027.5,000.0,037.2,030.4,13.2,0000.0,0013.44,0005.04,0003.79
2023-10-23 05:08:00,SystemResetWarning,0824.4,5.00,000.00,028.8,027.5,000.0,037.2,030.4,13.2,0000.0,0013.27,0005.01,0003.80
2023-10-23 05:09:00,SystemResetWarning,0824.4,5.00,000.00,028.8,027.5,000.0,037.2,030.5,13.2,0000.0,0013.25,0005.05,0003.81
2023-10-23 05:10:00,SystemResetWarning,0824.4,5.00,000.00,028.8,027.5,000.0,037.2,030.4,13.2,0000.0,0014.44,0005.11,0003.82
2023-10-23 05:11:00,SystemResetWarning,0824.4,5.00,000.00,028.8,027.5,000.0,037.2,030.5,13.2,0000.0,0014.06,0005.10,0003.83
2023-10-23 05:12:00,SystemResetWarning,0824.4,5.00,000.00,028.9,027.5,000.0,037.3,030.5,13.2,0000.0,0013.46,0005.08,0003.83
2023-10-23 05:13:00,SystemResetWarning,0824.4,5.00,000.00,028.9,027.5,000.0,037.3,030.5,13.2,0000.0,0013.14,0005.06,0003.83
2023-10-23 05:14:00,SystemResetWarning,0824.4,5.00,000.00,028.9,027.5,000.0,037.3,030.5,13.2,0000.0,0013.35,0005.00,0003.82
2023-10-23 05:15:00,SystemResetWarning,0824.3,5.00,000.00,028.9,027.5,000.0,037.3,030.5,13.1,0000.0,0013.67,0004.99,0003.82
2023-10-23 05:16:00,SystemResetWarning,0824.4,4.99,000.00,028.9,027.5,000.0,037.3,030.5,13.0,0000.0,0013.08,0004.92,0003.81
2023-10-23 05:17:00,SystemResetWarning,0824.4,4.99,000.00,028.9,027.5,000.0,037.3,030.5,13.1,0000.0,0012.45,0004.91,0003.81
2023-10-23 05:18:00,SystemResetWarning,0824.4,5.00,000.00,028.9,027.5,000.0,037.3,030.5,13.1,0000.0,0012.18,0004.90,0003.82
2023-10-23 05:19:00,SystemResetWarning,0824.3,5.00,000.00,028.9,027.5,000.0,037.3,030.5,13.0,0000.0,0012.28,0004.88,0003.82
2023-10-23 05:20:00,SystemResetWarning,0824.4,5.00,000.00,028.9,027.6,000.0,037.3,030.5,13.0,0000.0,0012.55,0004.88,0003.81
2023-10-23 05:21:00,SystemResetWarning,0824.4,5.00,000.00,028.9,027.6,000.0,037.3,030.5,13.1,0000.0,0012.30,0004.92,0003.81
2023-10-23 05:22:00,SystemResetWarning,0824.4,5.00,000.00,028.9,027.6,000.0,037.3,030.6,13.0,0000.0,0012.00,0004.92,0003.81
2023-10-23 05:23:00,SystemResetWarning,0824.4,5.00,000.00,028.9,027.6,000.0,037.3,030.6,13.0,0000.0,0012.31,0004.89,0003.80
2023-10-23 05:24:00,SystemResetWarning,0824.4,5.00,000.00,028.9,027.6,000.0,037.4,030.6,12.9,0000.0,0012.33,0004.93,0003.80
2023-10-23 05:25:00,SystemResetWarning,0824.4,4.99,000.00,029.0,027.6,000.0,037.4,030.6,12.9,0000.0,0011.88,0004.99,0003.82
2023-10-23 05:26:00,SystemResetWarning,0824.4,5.00,000.00,029.0,027.6,000.0,037.4,030.6,13.0,0000.0,0011.54,0005.00,0003.82
2023-10-23 05:27:00,SystemResetWarning,0824.4,5.01,000.00,029.0,027.6,000.0,037.4,030.6,12.9,0000.0,0011.23,0005.03,0003.83
2023-10-23 05:28:00,SystemResetWarning,0824.4,5.00,000.00,029.0,027.6,000.0,037.4,030.6,12.8,0000.0,0011.24,0005.06,0003.84
2023-10-23 05:29:00,SystemResetWarning,0824.4,5.01,000.00,029.0,027.6,000.0,037.4,030.6,12.8,0000.0,0011.42,0005.11,0003.84
2023-10-23 05:30:00,SystemResetWarning,0824.4,5.00,000.00,029.0,027.6,000.0,037.4,030.6,12.8,0000.0,0012.32,0005.12,0003.84
2023-10-23 05:31:00,SystemResetWarning,0824.3,5.00,000.00,029.0,027.7,000.0,037.4,030.6,12.8,0000.0,0012.50,0005.11,0003.85
2023-10-23 05:32:00,SystemResetWarning,0824.4,4.99,000.00,029.0,027.7,000.0,037.4,030.6,12.7,0000.0,0012.11,0005.06,0003.85
2023-10-23 05:33:00,SystemResetWarning,0824.4,4.99,000.00,029.0,027.7,000.0,037.4,030.7,12.8,0000.0,0012.48,0005.02,0003.86
2023-10-23 05:34:00,SystemResetWarning,0824.4,5.00,000.00,029.0,027.7,000.0,037.4,030.6,12.7,0000.0,0012.52,0005.08,0003.88
2023-10-23 05:35:00,SystemResetWarning,0824.4,5.01,000.00,029.0,027.7,000.0,037.5,030.7,12.8,0000.0,0012.40,0005.07,0003.88
2023-10-23 05:36:00,SystemResetWarning,0824.4,5.00,000.00,029.1,027.7,000.0,037.5,030.7,12.7,0000.0,0012.43,0005.03,0003.88
2023-10-23 05:37:00,SystemResetWarning,0824.4,5.01,000.00,029.1,027.7,000.0,037.5,030.7,12.7,0000.0,0012.40,0004.97,0003.88
2023-10-23 05:38:00,SystemResetWarning,0824.4,5.00,000.00,029.1,027.7,000.0,037.5,030.7,12.7,0000.0,0012.81,0004.95,0003.88
2023-10-23 05:39:00,SystemResetWarning,0824.4,5.00,000.00,029.1,027.7,000.0,037.5,030.7,12.5,0000.0,0012.71,0004.93,0003.87
2023-10-23 05:40:00,SystemResetWarning,0824.4,4.99,000.00,029.1,027.7,000.0,037.5,030.7,12.5,0000.0,0012.61,0004.91,0003.87
2023-10-23 05:41:00,SystemResetWarning,0824.4,5.00,000.00,029.1,027.7,000.0,037.5,030.7,12.5,0000.0,0011.65,0004.90,0003.88
2023-10-23 05:42:00,SystemResetWarning,0824.4,5.01,000.00,029.1,027.7,000.0,037.5,030.7,12.5,0000.0,0011.39,0004.89,0003.88
2023-10-23 05:43:00,SystemResetWarning,0824.4,5.01,000.00,029.1,027.7,000.0,037.5,030.7,12.5,0000.0,0012.84,0004.90,0003.88
2023-10-23 05:44:00,SystemResetWarning,0824.4,5.01,000.00,029.1,027.7,000.0,037.5,030.7,12.3,0000.0,0013.12,0004.93,0003.88
2023-10-23 05:45:00,SystemResetWarning,0824.4,5.01,000.00,029.1,027.7,000.0,037.5,030.7,12.3,0000.0,0012.57,0004.88,0003.87
2023-10-23 05:46:00,SystemResetWarning,0824.4,5.00,000.00,029.1,027.7,000.0,037.5,030.8,12.3,0000.0,0013.13,0004.88,0003.87
2023-10-23 05:47:00,SystemResetWarning,0824.4,5.00,000.00,029.1,027.7,000.0,037.5,030.7,12.3,0000.0,0013.47,0004.96,0003.87
2023-10-23 05:48:00,SystemResetWarning,0824.4,4.99,000.00,029.1,027.7,000.0,037.6,030.7,12.4,0000.0,0013.77,0004.98,0003.87
2023-10-23 05:49:00,SystemResetWarning,0824.4,4.99,000.00,029.1,027.8,000.0,037.6,030.8,12.3,0000.0,0013.61,0004.99,0003.87
2023-10-23 05:50:00,SystemResetWarning,0824.4,5.00,000.00,029.1,027.8,000.0,037.6,030.8,12.4,0000.0,0013.52,0004.97,0003.88
2023-10-23 05:51:00,SystemResetWarning,0824.5,5.00,000.00,029.1,027.8,000.0,037.6,030.8,12.3,0000.0,0014.58,0004.96,0003.87
2023-10-23 05:52:00,SystemResetWarning,0824.5,5.00,000.00,029.2,027.8,000.0,037.6,030.8,12.4,0000.0,0014.96,0004.97,0003.88
2023-10-23 05:53:00,SystemResetWarning,0824.5,5.00,000.00,029.2,027.8,000.0,037.6,030.8,12.6,0000.0,0014.85,0004.99,0003.88
2023-10-23 05:54:00,SystemResetWarning,0824.5,5.01,000.00,029.2,027.8,000.0,037.6,030.8,12.7,0000.0,0013.56,0005.03,0003.89
2023-10-23 05:55:00,SystemResetWarning,0824.5,5.01,000.00,029.2,027.8,000.0,037.6,030.8,12.7,0000.0,0012.49,0005.06,0003.88
2023-10-23 05:56:00,SystemResetWarning,0824.5,5.01,000.00,029.2,027.8,000.0,037.6,030.8,12.7,0000.0,0012.94,0005.10,0003.88
2023-10-23 05:57:00,SystemResetWarning,0824.5,5.00,000.00,029.2,027.8,000.0,037.6,030.8,12.7,0000.0,0013.06,0005.07,0003.88
2023-10-23 05:58:00,SystemResetWarning,0824.5,5.00,000.00,029.2,027.9,000.0,037.6,030.9,12.7,0000.0,0012.97,0005.03,0003.88
2023-10-23 05:59:00,SystemResetWarning,0824.5,5.00,000.00,029.2,027.9,000.0,037.6,030.9,12.7,0000.0,0013.36,0005.01,0003.88
